This is the latest recevied weather packets stored in our database for station/object VA3ZFM-10. If no packets are shown the sender has not sent any weather packets the latest 10 day(s).
| Time | Temp. | Humidity | Pressure | Rain* | Wind** | Luminosity | Snow |
|---|---|---|---|---|---|---|---|
| 1777638121 | 0.56° C | 80% | 1012.1 hPa | 0 mm | - | - | - |
| 1777637817 | 0.56° C | 73% | 1011.9 hPa | 0 mm | - | - | - |
| 1777637514 | 0.56° C | 81% | 1012 hPa | 0 mm | - | - | - |
| 1777637212 | 0° C | 86% | 1012 hPa | 0 mm | - | - | - |
| 1777636908 | 0° C | 87% | 1012.2 hPa | 0 mm | - | - | - |
| 1777636604 | 0° C | 86% | 1012 hPa | 0 mm | - | - | - |
| 1777636300 | 0° C | 83% | 1012.1 hPa | 0 mm | - | - | - |
| 1777635995 | 0° C | 86% | 1012.1 hPa | 0 mm | - | - | - |
| 1777635691 | -0.56° C | 87% | 1011.9 hPa | 0 mm | - | - | - |
| 1777635388 | -1.11° C | 88% | 1011.9 hPa | 0 mm | - | - | - |
| 1777635085 | -1.11° C | 89% | 1011.9 hPa | 0 mm | - | - | - |
| 1777634781 | -1.67° C | 89% | 1012.1 hPa | 0 mm | - | - | - |
| 1777634478 | -1.67° C | 90% | 1012.1 hPa | 0 mm | - | - | - |
| 1777634175 | -1.67° C | 90% | 1012.1 hPa | 0 mm | - | - | - |
| 1777633871 | -2.22° C | 90% | 1012.1 hPa | 0 mm | - | - | - |
| 1777633570 | -2.22° C | 90% | 1012.1 hPa | 0 mm | - | - | - |
| 1777633267 | -2.22° C | 91% | 1012.1 hPa | 0 mm | - | - | - |
| 1777632964 | -2.22° C | 91% | 1012.1 hPa | 0 mm | - | - | - |
| 1777632660 | -2.22° C | 92% | 1012 hPa | 0 mm | - | - | - |
| 1777632357 | -2.22° C | 92% | 1012.2 hPa | 0 mm | - | - | - |
| 1777632054 | -2.22° C | 92% | 1011.9 hPa | 0 mm | - | - | - |
| 1777631752 | -2.22° C | 92% | 1012 hPa | 0 mm | - | - | - |
| 1777631449 | -2.22° C | 92% | 1011.9 hPa | 0 mm | - | - | - |
| 1777631146 | -2.22° C | 92% | 1012.1 hPa | 0 mm | - | - | - |
| 1777630844 | -2.22° C | 92% | 1012 hPa | 0 mm | - | - | - |
* Rain latest hour (hover to see other rain measurements)
** Current wind speed in m/s (hover to see current wind gust speed)